Weather History for Key West, FL

Change the Weather History Date:

Sunday, May 26, 2013

  Actual Average Record
Temperature  
Mean Temperature 84 °F 82 °F  
Max Temperature 89 °F 86 °F 91 °F (1989)
Min Temperature 79 °F 77 °F 68 °F (1992)
Degree Days  
Heating Degree Days 0 0  
Month to date heating degree days 0 0  
Since 1 July heating degree days 28 73  
Cooling Degree Days 19 17  
Month to date cooling degree days 406 392  
Year to date cooling degree days 1552 1346  
Growing Degree Days 34 (Base 50)    
Moisture  
Dew Point 67 °F    
Average Humidity 58    
Maximum Humidity 71    
Minimum Humidity 45    
Precipitation  
Precipitation 0.00 in 0.14 in 2.89 in (1886)
Month to date precipitation 4.74 2.30  
Year to date precipitation 10.69 9.93  
Snow  
Snow 0.00 in - - ()
Month to date snowfall 0.0  
Since 1 July snowfall 0.0  
Snow Depth 0.00 in    
Sea Level Pressure  
Sea Level Pressure 30.11 in    
Wind  
Wind Speed 11 mph (East)    
Max Wind Speed 20 mph    
Max Gust Speed 28 mph    
Visibility 10 miles    
Events      
T = Trace of Precipitation, MM = Missing Value Source: NWS Daily Summary

Daily Weather History Graph

Daily Weather History Graph

Search for Another Location

Airport:

Trip Planner

Search our weather history database for the weather conditions in past years. The results will help you decide how hot, cold, wet, or windy it might be!

Date:

Astronomy

May. 26, 2013 Rise Set
Actual Time 6:39 AM EDT 8:09 PM EDT
Civil Twilight 6:14 AM EDT 8:34 PM EDT
Nautical Twilight 5:44 AM EDT 9:04 PM EDT
Astronomical Twilight 5:12 AM EDT 9:35 PM EDT
Moon 9:58 PM EDT (5/26) 8:05 AM EDT (5/26)
Length of Visible Light 14h 20m
Length of Day
13h 29m
Waning Gibbous, 97% of the Moon is Illuminated
May 26
Waning Gibbous
May 31
Last Quarter
Jun 8
New
Jun 16
First Quarter
Jun 23
Full

Hourly Weather History & Observations

Time (EDT) Temp. Heat Index Dew Point Humidity Pressure Visibility Wind Dir Wind Speed Gust Speed Precip Events Conditions
12:53 AM 81.0 °F 83.8 °F 68.0 °F 65% 30.13 in 10.0 mi East 9.2 mph 23.0 mph N/A   Partly Cloudy
1:53 AM 81.0 °F 83.3 °F 66.9 °F 62% 30.12 in 10.0 mi East 12.7 mph - N/A   Partly Cloudy
2:53 AM 80.1 °F 82.7 °F 68.0 °F 67% 30.09 in 10.0 mi East 13.8 mph 19.6 mph N/A   Clear
3:53 AM 80.1 °F 82.7 °F 68.0 °F 67% 30.09 in 10.0 mi ENE 9.2 mph 18.4 mph N/A   Clear
4:53 AM 79.0 °F - 68.0 °F 69% 30.09 in 10.0 mi ENE 9.2 mph - N/A   Clear
5:14 AM 78.8 °F - 66.2 °F 65% 30.09 in 10.0 mi ENE 9.2 mph 18.4 mph N/A   Partly Cloudy
5:53 AM 79.0 °F - 66.9 °F 66% 30.09 in 10.0 mi ENE 8.1 mph - N/A   Clear
6:53 AM 79.0 °F - 68.0 °F 69% 30.10 in 10.0 mi NE 8.1 mph - N/A   Clear
7:53 AM 80.1 °F 82.7 °F 68.0 °F 67% 30.11 in 10.0 mi ENE 9.2 mph 16.1 mph N/A   Clear
8:53 AM 82.0 °F 84.5 °F 66.9 °F 60% 30.13 in 10.0 mi ENE 8.1 mph - N/A   Clear
9:53 AM 84.0 °F 86.5 °F 66.9 °F 56% 30.14 in 10.0 mi East 10.4 mph - N/A   Scattered Clouds
10:53 AM 84.9 °F 86.6 °F 64.9 °F 51% 30.15 in 10.0 mi East 9.2 mph - N/A   Scattered Clouds
11:53 AM 86.0 °F 87.3 °F 64.0 °F 48% 30.15 in 10.0 mi East 9.2 mph - N/A   Scattered Clouds
12:53 PM 84.0 °F 85.8 °F 64.9 °F 53% 30.14 in 10.0 mi East 10.4 mph - N/A   Overcast
1:53 PM 86.0 °F 87.3 °F 64.0 °F 48% 30.13 in 10.0 mi East 9.2 mph - N/A   Scattered Clouds
2:53 PM 87.1 °F 88.3 °F 64.0 °F 46% 30.11 in 10.0 mi NE 9.2 mph - N/A   Scattered Clouds
3:53 PM 84.9 °F 87.6 °F 66.9 °F 55% 30.09 in 10.0 mi East 13.8 mph 20.7 mph N/A   Mostly Cloudy
4:53 PM 86.0 °F 86.8 °F 63.0 °F 46% 30.09 in 10.0 mi ESE 12.7 mph - N/A   Clear
5:53 PM 84.9 °F 86.1 °F 64.0 °F 49% 30.08 in 10.0 mi East 11.5 mph - N/A   Clear
6:53 PM 82.9 °F 85.4 °F 66.9 °F 58% 30.08 in 10.0 mi East 8.1 mph - N/A   Clear
7:19 PM 82.4 °F 84.6 °F 66.2 °F 58% 30.07 in 10.0 mi East 9.2 mph 17.3 mph N/A   Partly Cloudy
7:53 PM 82.0 °F 85.5 °F 69.1 °F 65% 30.08 in 10.0 mi East 11.5 mph - N/A   Partly Cloudy
8:53 PM 81.0 °F 83.8 °F 68.0 °F 65% 30.08 in 10.0 mi East 13.8 mph - N/A   Scattered Clouds
9:53 PM 81.0 °F 83.8 °F 68.0 °F 65% 30.10 in 10.0 mi East 16.1 mph 24.2 mph N/A   Mostly Cloudy
10:53 PM 81.0 °F 83.8 °F 68.0 °F 65% 30.10 in 10.0 mi East 13.8 mph 23.0 mph N/A   Scattered Clouds
11:53 PM 80.1 °F 82.3 °F 66.9 °F 64% 30.12 in 10.0 mi East 16.1 mph 23.0 mph N/A   Partly Cloudy